Погода в Пунто Фихо

Венесуэла     11°41′21″N   70°12′33″W
темп.,
°C
ветер,
м/с
пор.,
м/с
влажн.,
%
обл.,
%
осадки,
мм/ч
давл.,
гПа
погр.,
м
27 июля, вт
вт2723:00+27в9138339 0.1 1014678
02:00+27в91385100 0.1 1012543
05:00+26в8138599 0.0 1012574
08:00+27в101379100 0.0 1013596
11:00+30в91165100 0.0 1014517
14:00+31в7859100 0.0 1012526
17:00+30всв101264100 0.1 1010411
20:00+27всв10148168 0.1 1011612
28 июля, ср
ср2823:00+27всв91383100 0.0 1013641
02:00+26в811854 0.0 1012698
05:00+26в811830 0.0 1011695
08:00+27в8107920 0.0 1013747
11:00+29вюв89664 0.0 1013546
14:00+31в55595 0.0 1010601
17:00+30всв1112630 0.1 1008496
20:00+27всв1215780 0.1 1010672
29 июля, чт
чт2923:00+27в111483100 0.0 1012667
02:00+26в11158298 0.0 1010654
05:00+26в101481100 0.0 1010520
08:00+26в81079100 0.0 1011426
11:00+29вюв6764100 0.0 1012388
14:00+30юв6761100 0.0 1010492
17:00+30всв9116134 0.0 1008403
20:00+28в14187425 0.0 1010474
30 июля, пт
пт3023:00+27в12167693 0.0 1012466
02:00+27в12177784 0.0 1011568
05:00+27в11158177 0.0 1011589
08:00+27в11147793 0.0 1013605
11:00+30в12146253 0.0 1013566
14:00+32в1112535 0.0 1011548
17:00+30всв1417615 0.0 1009494
20:00+27в1419805 0.0 1012568
31 июля, сб
сб3123:00+27в1318820 0.0 1013630
02:00+27в1317820 0.0 1012704
05:00+26в1216840 0.0 1012703
08:00+27в1215811 0.0 1014781
11:00+30в1113630 0.0 1013578
14:00+32в910550 0.0 1011581
17:00+30всв1316600 0.0 1010507
20:00+27в1318780 0.0 1012603